Location: Stilling
(56.0622°N, 9.9882°E)
Time: 00:02:41
(UTC+00:00)

Cosmos 389 Rocket - Pass Details

Date: 13 July 2020
Orbit: 442 x 477 km, 81.1° (Epoch: 03 August)

Event Time Altitude Azimuth Distance (km) Brightness Sun altitude
Rises 22:16:45 0° 352° (N) 2,493 8.2 -10.9°
Reaches altitude 10° 22:19:06 10° 5° (N) 1,607 6.4 -11.0°
Maximum altitude 22:22:05 26° 64° (ENE) 942 4.1 -11.1°
Enters shadow 22:25:01 10° 122° (ESE) 1,573 4.7 -11.2°
